CW0641 Weather Reports


Display with metric or nautical units.
time (UTC)temp
F
wind
direction
speed
MPH
gust
MPH
rain 1hr
in
rain 24hr
in
rain mn
in
humidity
%
barometer
mb
20190119095315 50 138 2.0 9.0 0.00 0.01 0.01 66 1014.8
20190119094810 50 124 3.0 10.0 0.00 0.01 0.01 67 1014.8
20190119094312 50 42 3.0 10.0 0.00 0.01 0.01 67 1014.8
20190119093812 50 317 3.0 9.0 0.00 0.01 0.01 68 1014.8
20190119093312 50 138 3.0 10.0 0.00 0.01 0.01 68 1014.8
20190119092812 49 126 4.0 11.0 0.00 0.01 0.01 69 1014.8
20190119092323 49 137 4.0 11.0 0.00 0.01 0.01 69 1014.8
20190119091814 49 86 4.0 12.0 0.00 0.01 0.01 69 1014.9
20190119091309 49 140 4.0 12.0 0.00 0.01 0.01 69 1015.0
20190119090806 49 134 3.0 11.0 0.00 0.01 0.01 69 1015.0
20190119090305 49 103 4.0 11.0 0.00 0.01 0.01 69 1015.1
20190119085809 49 148 5.0 12.0 0.00 0.01 0.01 68 1015.2
20190119085310 49 135 5.0 12.0 0.00 0.01 0.01 67 1015.3
20190119084807 49 132 4.0 12.0 0.00 0.01 0.01 68 1015.3
20190119084301 49 135 4.0 12.0 0.00 0.01 0.01 67 1015.4
20190119083802 50 125 2.0 9.0 0.00 0.01 0.01 69 1015.7
20190119083302 49 132 2.0 8.0 0.00 0.01 0.01 70 1015.7
20190119082754 49 128 2.0 7.0 0.00 0.01 0.01 71 1015.8
20190119082254 49 136 2.0 8.0 0.00 0.01 0.01 70 1015.9
20190119081754 49 127 3.0 8.0 0.00 0.01 0.01 69 1015.9
20190119081256 49 171 2.0 9.0 0.00 0.01 0.01 70 1015.9
20190119080753 49 147 2.0 9.0 0.00 0.01 0.01 70 1015.9
20190119080254 49 144 2.0 7.0 0.00 0.01 0.01 71 1015.9
20190119075754 49 140 2.0 7.0 0.00 0.01 0.01 72 1016.0
20190119075254 48 111 2.0 7.0 0.00 0.01 0.01 72 1016.0
20190119074755 48 139 3.0 7.0 0.00 0.01 0.01 72 1016.0
20190119074254 48 143 3.0 9.0 0.00 0.01 0.01 72 1015.9
20190119073754 48 141 3.0 9.0 0.00 0.01 0.01 72 1016.0
20190119073254 48 135 2.0 10.0 0.00 0.01 0.01 72 1015.9
20190119072754 48 117 1.0 10.0 0.00 0.01 0.01 73 1015.9
20190119072253 48 145 1.0 7.0 0.00 0.01 0.01 75 1015.9
20190119071754 47 188 2.0 8.0 0.00 0.01 0.01 75 1016.0
20190119071254 47 136 2.0 8.0 0.00 0.01 0.01 75 1015.9
20190119070750 47 139 2.0 8.0 0.00 0.01 0.01 76 1015.9
20190119070250 46 105 2.0 8.0 0.00 0.01 0.01 75 1015.8
20190119065750 46 136 3.0 8.0 0.00 0.01 0.01 75 1015.8
20190119065246 46 135 3.0 9.0 0.00 0.01 0.01 76 1015.5
20190119064746 46 148 3.0 9.0 0.00 0.01 0.01 75 1015.4
20190119064245 46 140 3.0 9.0 0.00 0.01 0.01 77 1015.4
20190119063745 46 154 3.0 9.0 0.00 0.01 0.01 76 1015.3
20190119063238 46 97 2.0 8.0 0.00 0.01 0.01 77 1015.3
20190119062739 45 160 2.0 7.0 0.00 0.01 0.01 78 1015.3
20190119062238 45 119 2.0 8.0 0.00 0.01 0.01 79 1015.2
20190119061738 44 123 2.0 8.0 0.00 0.01 0.01 79 1015.2
20190119061238 44 128 2.0 8.0 0.00 0.01 0.01 79 1015.2
20190119060737 44 119 2.0 7.0 0.00 0.01 0.01 79 1015.3
20190119060237 44 125 1.0 4.0 0.00 0.01 0.01 79 1015.3
20190119055738 44 112 1.0 6.0 0.00 0.01 0.01 79 1015.2
20190119055238 44 129 0.0 6.0 0.00 0.01 0.01 80 1015.3
20190119054738 43 117 1.0 7.0 0.00 0.01 0.01 80 1015.1
20190119054238 43 117 2.0 7.0 0.00 0.01 0.01 80 1015.1
20190119053738 43 120 2.0 7.0 0.00 0.01 0.01 80 1015.1
20190119053237 42 111 2.0 7.0 0.00 0.01 0.01 80 1015.1
20190119052737 42 107 2.0 6.0 0.00 0.01 0.01 81 1015.1
20190119052238 42 114 2.0 7.0 0.00 0.01 0.01 81 1015.1
20190119051738 42 119 2.0 7.0 0.00 0.01 0.01 81 1015.0
20190119051238 41 107 1.0 6.0 0.00 0.01 0.01 82 1015.0
20190119050738 41 107 1.0 6.0 0.00 0.01 0.01 82 1014.9
20190119050234 41 109 2.0 6.0 0.00 0.01 0.01 82 1014.9
20190119045734 41 114 2.0 6.0 0.00 0.01 0.01 83 1014.9
20190119045234 41 107 2.0 6.0 0.00 0.01 0.01 83 1014.8
20190119044734 41 103 2.0 6.0 0.00 0.01 0.01 83 1014.8
20190119044230 40 105 2.0 6.0 0.00 0.01 0.01 84 1014.7
20190119043722 40 109 2.0 4.0 0.00 0.01 0.01 85 1014.6
20190119043221 40 106 2.0 4.0 0.00 0.01 0.01 85 1014.6
20190119042718 40 112 1.0 6.0 0.00 0.01 0.01 86 1014.7
20190119042218 40 111 1.0 6.0 0.00 0.01 0.01 86 1014.7
20190119041718 40 106 1.0 4.0 0.00 0.01 0.01 87 1014.7
20190119041218 40 107 0.0 2.0 0.01 0.01 0.01 87 1014.8
20190119040714 40 106 0.0 0.0 0.01 0.01 0.01 88 1014.8
20190119040210 40 106 0.0 0.0 0.01 0.01 0.01 88 1014.8
20190119035710 40 107 0.0 1.0 0.01 0.01 0.01 87 1014.8
20190119035206 40 106 0.0 6.0 0.01 0.01 0.01 87 1014.8
20190119034706 40 101 0.0 6.0 0.01 0.01 0.01 87 1014.8
20190119034202 40 98 0.0 3.0 0.01 0.01 0.01 88 1014.8
20190119033702 40 86 0.0 0.0 0.01 0.01 0.01 88 1014.8
20190119033202 40 86 0.0 0.0 0.01 0.01 0.01 87 1014.9
20190119032703 40 86 0.0 0.0 0.01 0.01 0.01 88 1014.9
20190119032202 40 86 0.0 0.0 0.01 0.01 0.01 88 1014.9
20190119031702 40 86 0.0 0.0 0.01 0.01 0.01 88 1014.9
20190119031158 40 86 0.0 0.0 0.00 0.01 0.00 88 1014.9
20190119030650 40 86 0.0 0.0 0.00 0.01 0.00 88 1014.8
20190119030150 40 86 0.0 0.0 0.00 0.01 0.00 88 1014.8
20190119025650 40 86 0.0 0.0 0.00 0.01 0.00 88 1014.8
20190119025147 40 86 0.0 0.0 0.00 0.01 0.00 87 1014.8
20190119024643 40 86 0.0 0.0 0.00 0.01 0.00 87 1014.8
20190119024138 40 86 0.0 0.0 0.00 0.01 0.00 87 1014.8
20190119023638 40 86 0.0 0.0 0.00 0.01 0.00 88 1014.8
20190119023138 40 86 0.0 0.0 0.00 0.02 0.00 87 1014.8
20190119022641 40 86 0.0 3.0 0.00 0.02 0.00 87 1014.7
20190119022121 40 86 1.0 3.0 0.00 0.02 0.00 88 1014.6
20190119021614 40 86 0.0 3.0 0.00 0.02 0.00 88 1014.5
20190119021115 40 40 0.0 0.0 0.00 0.02 0.00 87 1014.6
20190119020611 40 28 0.0 0.0 0.00 0.02 0.00 88 1014.6
20190119020106 40 27 0.0 0.0 0.00 0.02 0.00 87 1014.7
20190119015606 40 24 0.0 0.0 0.00 0.02 0.00 87 1014.7
20190119015106 40 24 0.0 0.0 0.00 0.02 0.00 87 1014.8
20190119014602 40 24 0.0 0.0 0.00 0.02 0.00 88 1014.7
20190119014102 40 0 0.0 0.0 0.00 0.02 0.00 87 1014.8
20190119013602 40 0 0.0 0.0 0.00 0.02 0.00 88 1014.8
20190119013059 40 0 0.0 0.0 0.00 0.02 0.00 88 1014.8
20190119012547 40 0 0.0 0.0 0.00 0.02 0.00 87 1014.9
20190119012042 40 0 0.0 0.0 0.00 0.02 0.00 87 1014.9
20190119011536 40 0 0.0 0.0 0.00 0.02 0.00 87 1014.9
20190119011018 40 0 0.0 0.0 0.00 0.02 0.00 87 1014.9
20190119010517 40 0 0.0 0.0 0.00 0.02 0.00 87 1014.9
20190119010020 40 0 0.0 0.0 0.00 0.02 0.00 87 1015.0
20190119005518 40 0 0.0 0.0 0.00 0.02 0.00 87 1015.0
20190119005014 40 0 0.0 0.0 0.00 0.02 0.00 87 1015.0
20190119004510 41 0 0.0 0.0 0.00 0.02 0.00 87 1015.0
20190118230320 40 355 0.0 0.0 0.00 0.02 0.00 88 1015.4
20190118225818 40 355 0.0 0.0 0.00 0.02 0.00 88 1015.4
20190118225319 40 355 0.0 0.0 0.00 0.02 0.00 87 1015.5
20190118224820 40 355 0.0 0.0 0.00 0.02 0.00 87 1015.7
20190118224320 40 355 0.0 0.0 0.00 0.02 0.00 87 1015.5
20190118224124 40 355 0.0 0.0 0.00 0.02 0.00 87 1015.4
20190118223319 40 355 0.0 0.0 0.00 0.02 0.00 87 1015.5
20190118222821 40 355 0.0 0.0 0.00 0.02 0.00 87 1015.5
20190118222319 40 355 0.0 0.0 0.00 0.02 0.00 87 1015.5
20190118221819 40 355 0.0 0.0 0.00 0.02 0.00 86 1015.7
20190118221319 40 355 0.0 0.0 0.00 0.02 0.00 86 1015.7
20190118220818 40 355 0.0 0.0 0.00 0.02 0.00 86 1015.7
20190118220318 41 355 0.0 0.0 0.00 0.02 0.00 86 1015.8
20190118215810 41 355 0.0 0.0 0.00 0.02 0.02 86 1015.8
20190118215306 41 355 0.0 0.0 0.00 0.02 0.02 86 1015.9
20190118214800 41 355 0.0 0.0 0.00 0.02 0.02 86 1015.9
20190118214258 41 355 0.0 0.0 0.00 0.02 0.02 86 1015.9
20190118213754 41 355 0.0 0.0 0.00 0.02 0.02 86 1016.0
20190118213254 41 355 0.0 0.0 0.00 0.02 0.02 86 1016.0
20190118212746 41 355 0.0 0.0 0.00 0.02 0.02 86 1016.0
20190118212246 41 355 0.0 0.0 0.00 0.02 0.02 86 1016.0
20190118211746 41 355 0.0 0.0 0.00 0.02 0.02 86 1016.0
20190118211230 41 355 0.0 0.0 0.00 0.02 0.02 86 1016.0
20190118210729 41 355 0.0 0.0 0.00 0.02 0.02 86 1016.1
20190118210218 41 355 0.0 0.0 0.00 0.02 0.02 85 1016.1
20190118205720 41 355 0.0 0.0 0.00 0.02 0.02 85 1016.2
20190118205218 41 355 0.0 0.0 0.00 0.02 0.02 84 1016.1
20190118204717 42 355 0.0 0.0 0.00 0.02 0.02 84 1016.0
20190118204219 42 355 0.0 0.0 0.00 0.02 0.02 84 1016.0
20190118203718 42 355 0.0 0.0 0.00 0.02 0.02 83 1016.0
20190118203218 42 355 0.0 0.0 0.00 0.02 0.02 83 1016.0
20190118202719 42 355 0.0 0.0 0.00 0.02 0.02 84 1016.0
20190118202220 42 355 0.0 0.0 0.00 0.02 0.02 84 1016.0
20190118201719 42 355 0.0 0.0 0.00 0.02 0.02 84 1016.0
20190118201214 42 355 0.0 0.0 0.00 0.02 0.02 85 1016.0
20190118200706 42 355 0.0 0.0 0.00 0.02 0.02 85 1016.0
20190118200202 43 355 0.0 0.0 0.00 0.02 0.02 85 1016.1
20190118195658 43 355 0.0 0.0 0.00 0.02 0.02 85 1016.1
20190118195158 43 355 0.0 0.0 0.00 0.02 0.02 86 1016.1
20190118194659 43 355 0.0 0.0 0.00 0.02 0.02 86 1016.1
20190118194157 43 355 0.0 0.0 0.00 0.02 0.02 86 1016.1
20190118193658 43 355 0.0 0.0 0.00 0.02 0.02 87 1016.1
20190118193142 43 355 0.0 0.0 0.00 0.02 0.02 87 1016.1
20190118192642 43 355 0.0 0.0 0.00 0.02 0.02 87 1016.0
20190118192140 43 355 0.0 0.0 0.00 0.02 0.02 87 1016.0
20190118191634 43 355 0.0 0.0 0.00 0.02 0.02 87 1016.0
20190118191130 43 355 0.0 3.0 0.00 0.02 0.02 86 1015.9
20190118190629 43 355 2.0 5.0 0.00 0.02 0.02 86 1015.9
20190118190130 43 0 2.0 5.0 0.00 0.02 0.02 87 1016.0
20190118185630 43 12 2.0 5.0 0.00 0.02 0.02 87 1016.0
20190118185130 43 17 2.0 5.0 0.00 0.02 0.02 86 1016.0
20190118184625 43 5 3.0 5.0 0.00 0.02 0.02 86 1016.0
20190118184126 44 5 2.0 5.0 0.00 0.02 0.02 86 1016.0
20190118183628 44 12 1.0 5.0 0.00 0.02 0.02 87 1016.0
20190118183126 44 18 0.0 3.0 0.00 0.02 0.02 87 1016.0
20190118182626 44 18 0.0 3.0 0.00 0.02 0.02 87 1016.0
20190118182126 44 17 0.0 2.0 0.00 0.02 0.02 87 1016.0
20190118181628 44 11 0.0 2.0 0.00 0.02 0.02 87 1016.0
20190118181126 44 11 0.0 2.0 0.00 0.02 0.02 87 1016.1
20190118180626 44 11 0.0 2.0 0.00 0.02 0.02 87 1016.0
20190118180118 44 5 0.0 2.0 0.00 0.02 0.02 87 1016.1
20190118175618 44 5 0.0 3.0 0.00 0.02 0.02 87 1016.1
20190118175114 44 5 0.0 3.0 0.00 0.02 0.02 86 1016.1
20190118174610 44 5 1.0 4.0 0.00 0.02 0.02 86 1016.1
20190118174109 44 5 2.0 8.0 0.00 0.02 0.02 86 1016.2
20190118173558 44 348 1.0 8.0 0.00 0.02 0.02 86 1016.1
20190118173058 44 0 1.0 5.0 0.00 0.02 0.02 85 1016.1
20190118172558 44 0 2.0 5.0 0.00 0.02 0.02 85 1016.1
20190118172058 44 0 2.0 5.0 0.00 0.02 0.02 85 1016.1
20190118171558 44 11 2.0 5.0 0.00 0.02 0.02 85 1016.1
20190118171054 45 0 2.0 6.0 0.00 0.02 0.02 85 1016.3
20190118170554 45 5 3.0 6.0 0.00 0.02 0.02 84 1016.1
20190118170054 45 5 3.0 6.0 0.00 0.02 0.02 84 1016.1
20190118165554 45 348 3.0 6.0 0.00 0.02 0.02 84 1016.1
20190118165054 45 0 3.0 6.0 0.00 0.02 0.02 84 1016.1
20190118164553 45 350 3.0 8.0 0.00 0.02 0.02 83 1016.1
20190118164054 45 355 4.0 8.0 0.00 0.02 0.02 83 1016.1
20190118163553 45 0 4.0 8.0 0.00 0.02 0.02 83 1016.1
20190118163054 45 0 4.0 7.0 0.00 0.02 0.02 83 1016.1
20190118162554 45 0 4.0 8.0 0.00 0.02 0.02 83 1016.1
20190118162054 46 17 4.0 9.0 0.00 0.02 0.02 82 1016.1
20190118161542 46 9 4.0 9.0 0.00 0.02 0.02 82 1016.1
20190118161041 46 0 4.0 7.0 0.00 0.02 0.02 82 1016.1
20190118160541 46 5 3.0 7.0 0.00 0.02 0.02 81 1016.1
20190118160041 46 12 3.0 7.0 0.00 0.02 0.02 81 1016.1
20190118155542 46 348 3.0 7.0 0.00 0.02 0.02 80 1016.1
20190118155038 46 5 3.0 6.0 0.00 0.02 0.02 80 1016.1
20190118154534 47 348 3.0 7.0 0.00 0.02 0.02 80 1016.0
20190118154034 47 336 4.0 8.0 0.00 0.02 0.02 79 1016.0
20190118153534 47 341 4.0 8.0 0.00 0.02 0.02 80 1015.9
20190118153034 47 328 3.0 8.0 0.00 0.02 0.02 79 1015.8
20190118152533 47 338 3.0 8.0 0.00 0.02 0.02 79 1015.8
20190118152036 47 11 4.0 9.0 0.00 0.02 0.02 79 1015.7
20190118151533 47 345 4.0 9.0 0.00 0.02 0.02 79 1015.7
20190118151032 47 20 4.0 9.0 0.00 0.02 0.02 79 1015.5
20190118150526 47 329 4.0 9.0 0.00 0.02 0.02 78 1015.5
20190118150026 47 355 3.0 9.0 0.00 0.02 0.02 78 1015.4
20190118145526 47 5 3.0 11.0 0.00 0.02 0.02 77 1015.4
20190118145026 47 11 4.0 11.0 0.00 0.02 0.02 77 1015.3
20190118144522 48 327 4.0 8.0 0.00 0.02 0.02 76 1015.2
20190118144022 48 15 5.0 9.0 0.00 0.02 0.02 75 1015.2
20190118143522 48 19 5.0 10.0 0.00 0.02 0.02 75 1015.3
20190118143021 48 355 4.0 10.0 0.00 0.02 0.02 76 1015.2
20190118142522 48 345 4.0 9.0 0.00 0.02 0.02 76 1015.1
20190118142022 48 339 4.0 9.0 0.00 0.02 0.02 76 1015.0
20190118141522 48 5 5.0 10.0 0.00 0.02 0.02 76 1015.0
20190118141022 48 5 4.0 10.0 0.00 0.02 0.02 76 1015.0
20190118140521 48 0 3.0 7.0 0.00 0.02 0.02 77 1014.9
20190118140022 48 0 4.0 8.0 0.00 0.02 0.02 77 1014.9
20190118135522 48 15 5.0 11.0 0.00 0.02 0.02 77 1014.9
20190118135023 48 13 6.0 11.0 0.00 0.02 0.02 76 1015.0
20190118134521 48 347 5.0 10.0 0.00 0.02 0.02 77 1014.9
20190118134022 48 346 5.0 10.0 0.00 0.02 0.02 76 1014.9
20190118133522 48 329 4.0 10.0 0.00 0.02 0.02 76 1014.8
20190118133024 48 335 4.0 9.0 0.00 0.02 0.02 77 1014.8
20190118132524 48 0 4.0 9.0 0.00 0.02 0.02 77 1014.8
20190118132023 48 336 5.0 12.0 0.00 0.02 0.02 78 1014.8
20190118131522 48 349 5.0 12.0 0.00 0.02 0.02 79 1014.7
20190118131026 48 5 5.0 14.0 0.00 0.02 0.02 79 1014.7
20190118130522 48 311 5.0 14.0 0.00 0.02 0.02 80 1014.7
20190118130021 48 306 3.0 9.0 0.00 0.02 0.02 81 1014.6
20190118125522 48 302 3.0 8.0 0.00 0.02 0.02 81 1014.6
20190118125022 48 322 4.0 9.0 0.00 0.02 0.02 81 1014.6
20190118124522 48 350 3.0 9.0 0.00 0.02 0.02 81 1014.5
20190118124018 48 350 3.0 9.0 0.00 0.02 0.02 80 1014.5
20190118123514 48 0 5.0 10.0 0.00 0.02 0.02 80 1014.5
20190118123013 48 314 5.0 10.0 0.00 0.02 0.02 79 1014.4
20190118122513 48 342 4.0 10.0 0.00 0.02 0.02 79 1014.4
20190118122014 48 331 4.0 10.0 0.00 0.02 0.02 79 1014.5
20190118121513 48 336 5.0 9.0 0.00 0.02 0.02 79 1014.5
20190118121014 48 307 5.0 11.0 0.00 0.02 0.02 78 1014.4
20190118120514 48 297 5.0 11.0 0.00 0.02 0.02 78 1014.4
20190118120014 48 301 4.0 9.0 0.00 0.02 0.02 78 1014.4
20190118115514 48 321 4.0 9.0 0.00 0.02 0.02 78 1014.5
20190118115015 48 327 6.0 12.0 0.00 0.02 0.02 77 1014.5
20190118114510 49 277 6.0 12.0 0.00 0.02 0.02 77 1014.6
20190118114009 49 323 6.0 11.0 0.00 0.02 0.02 77 1014.5
20190118113510 49 313 7.0 13.0 0.00 0.02 0.02 76 1014.6
20190118113012 49 306 7.0 13.0 0.00 0.02 0.02 75 1014.6
20190118112510 49 314 6.0 12.0 0.00 0.02 0.02 73 1014.6
20190118112010 49 307 6.0 12.0 0.00 0.02 0.02 72 1014.6
20190118111510 49 304 7.0 13.0 0.00 0.02 0.02 70 1014.7
20190118111010 49 292 7.0 13.0 0.00 0.02 0.02 68 1014.8
20190118110510 50 335 7.0 13.0 0.00 0.02 0.02 66 1014.7
20190118110010 50 310 6.0 11.0 0.00 0.02 0.02 67 1014.6
20190118105510 50 310 6.0 12.0 0.00 0.02 0.02 68 1014.6
20190118105009 50 314 4.0 12.0 0.00 0.02 0.02 69 1014.7
20190118104510 50 306 4.0 9.0 0.00 0.02 0.02 72 1014.7
20190118104010 49 263 5.0 13.0 0.00 0.02 0.02 72 1014.8
20190118103510 49 311 7.0 13.0 0.00 0.02 0.02 72 1014.8
20190118103010 49 355 6.0 13.0 0.00 0.02 0.02 72 1014.8
20190118102510 49 320 4.0 13.0 0.00 0.02 0.02 73 1014.9
20190118102006 48 325 6.0 12.0 0.00 0.02 0.02 75 1014.9
20190118101502 48 346 8.0 13.0 0.00 0.02 0.02 74 1014.9
20190118101003 48 339 8.0 15.0 0.00 0.02 0.02 75 1014.9
20190118100502 48 0 9.0 15.0 0.00 0.02 0.02 76 1014.9
20190118100002 48 346 7.0 15.0 0.00 0.02 0.02 76 1015.0